Manhattan, KS

10:21 AM CST on February 24, 2018 (GMT -0600)
Manhattan Regional

Weather History for KMHK - November, 2014

Change the Weather History Date:

Sunday, November 30, 2014

  Actual Average Record
Temperature  
Mean Temperature 35 °F 36 °F  
Max Temperature 50 °F 47 °F 66 °F (2003)
Min Temperature 20 °F 24 °F 15 °F (2005)
Degree Days  
Heating Degree Days 30 29  
Month to date heating degree days 837 676  
Since 1 July heating degree days 1137 1075  
Cooling Degree Days 0 0  
Month to date cooling degree days 0 1  
Year to date cooling degree days 1581 1362  
Moisture  
Dew Point 13 °F    
Average Humidity 69    
Maximum Humidity 100    
Minimum Humidity 37    
Precipitation  
Precipitation 0.00 in 0.03 in 0.70 in (2015)
Month to date precipitation 0.11 1.60  
Year to date precipitation 20.73 31.53  
Sea Level Pressure  
Sea Level Pressure 30.10 in    
Wind  
Wind Speed 13 mph (North)    
Max Wind Speed 20 mph    
Max Gust Speed 28 mph    
Visibility 10 miles    
Events      
T = Trace of Precipitation, MM = Missing Value Source: NWS Daily Summary

Daily Weather History Graph

Daily Weather History Graph

Search for Another Location

Airport or City:

Trip Planner

Search our weather history database for the weather conditions in past years. The results will help you decide how hot, cold, wet, or windy it might be!

Date:

Astronomy

Nov. 30, 2014 Rise Set
Actual Time 7:25 AM CST 5:04 PM CST
Civil Twilight 6:56 AM CST 5:34 PM CST
Nautical Twilight 6:23 AM CST 6:07 PM CST
Astronomical Twilight 5:51 AM CST 6:39 PM CST
Moon 1:32 PM CST (11/30) 1:00 AM CST (11/30)
Length of Visible Light 10h 37m
Length of Day
9h 38m
Waxing Gibbous, 65% of the Moon is Illuminated
Nov 30
Waxing Gibbous
Dec 6
Full
Dec 14
Last Quarter
Dec 21
New
Dec 28
First Quarter

Hourly Weather History & Observations

Time (CST) Temp. Windchill Dew Point Humidity Pressure Visibility Wind Dir Wind Speed Gust Speed Precip Events Conditions
12:52 AM 34.0 °F - 33.1 °F 96% 29.56 in 10.0 mi Calm Calm - N/A   Clear
1:52 AM 48.9 °F - 39.9 °F 71% 29.61 in 10.0 mi North 11.5 mph 17.3 mph N/A   Clear
2:52 AM 42.1 °F 34.5 °F 34.0 °F 73% 29.66 in 10.0 mi North 15.0 mph 25.3 mph N/A   Clear
3:52 AM 30.0 °F 20.0 °F 24.1 °F 79% 29.74 in 9.0 mi North 12.7 mph 18.4 mph N/A   Clear
4:38 AM 27.0 °F 16.1 °F 21.9 °F 81% 29.78 in 9.0 mi NNE 12.7 mph - N/A   Mostly Cloudy
4:52 AM 27.0 °F 16.1 °F 21.9 °F 81% 29.80 in 8.0 mi NNE 12.7 mph 19.6 mph N/A   Overcast
5:52 AM 28.0 °F 19.3 °F 21.9 °F 78% 29.86 in 8.0 mi NNE 9.2 mph 24.2 mph N/A   Overcast
6:17 AM 27.0 °F 15.6 °F 21.0 °F 78% 29.84 in 8.0 mi NNE 13.8 mph 24.2 mph N/A   Overcast
6:52 AM 27.0 °F 16.7 °F 21.0 °F 78% 29.91 in 8.0 mi North 11.5 mph - N/A   Overcast
7:52 AM 25.0 °F 13.6 °F 18.0 °F 75% 29.98 in 8.0 mi North 12.7 mph 19.6 mph N/A   Overcast
8:52 AM 24.1 °F 12.0 °F 14.0 °F 65% 30.04 in 10.0 mi North 13.8 mph 20.7 mph N/A   Overcast
9:12 AM 23.0 °F 10.1 °F 12.9 °F 65% 30.03 in 10.0 mi North 15.0 mph 20.7 mph N/A   Overcast
9:52 AM 24.1 °F 13.1 °F 12.0 °F 60% 30.10 in 10.0 mi North 11.5 mph 21.9 mph N/A   Overcast
10:19 AM 23.0 °F 12.4 °F 10.0 °F 58% 30.11 in 10.0 mi North 10.4 mph 21.9 mph N/A   Scattered Clouds
10:52 AM 23.0 °F 11.1 °F 8.1 °F 53% 30.17 in 10.0 mi North 12.7 mph 23.0 mph N/A   Partly Cloudy
11:35 AM 24.1 °F 11.5 °F 7.0 °F 48% 30.15 in 10.0 mi North 15.0 mph 24.2 mph N/A   Mostly Cloudy
11:52 AM 24.1 °F 10.1 °F 6.1 °F 46% 30.18 in 10.0 mi NNE 18.4 mph 27.6 mph N/A   Scattered Clouds
12:52 PM 26.1 °F 14.0 °F 6.1 °F 43% 30.18 in 10.0 mi NNE 15.0 mph 25.3 mph N/A   Clear
1:52 PM 26.1 °F 14.5 °F 5.0 °F 41% 30.18 in 10.0 mi North 13.8 mph 24.2 mph N/A   Clear
2:52 PM 26.1 °F 15.6 °F 3.9 °F 39% 30.21 in 10.0 mi North 11.5 mph - N/A   Clear
3:52 PM 26.1 °F 13.1 °F 3.9 °F 39% 30.25 in 10.0 mi NNE 17.3 mph 21.9 mph N/A   Clear
4:52 PM 24.1 °F 13.1 °F 3.0 °F 40% 30.30 in 10.0 mi North 11.5 mph - N/A   Clear
5:52 PM 23.0 °F 11.1 °F 3.0 °F 42% 30.36 in 10.0 mi NNE 12.7 mph 20.7 mph N/A   Clear
6:52 PM 21.9 °F 11.0 °F 3.0 °F 44% 30.39 in 10.0 mi North 10.4 mph 20.7 mph N/A   Clear
7:52 PM 21.9 °F 8.2 °F 3.0 °F 44% 30.42 in 10.0 mi NNE 16.1 mph 25.3 mph N/A   Clear
8:52 PM 21.0 °F 8.1 °F 3.0 °F 46% 30.47 in 10.0 mi North 13.8 mph 25.3 mph N/A   Clear
9:52 PM 21.0 °F 8.6 °F 3.0 °F 46% 30.50 in 10.0 mi North 12.7 mph - N/A   Clear
10:52 PM 19.9 °F 9.3 °F 3.0 °F 48% 30.55 in 10.0 mi North 9.2 mph 24.2 mph N/A   Clear
11:52 PM 19.9 °F 6.7 °F 3.0 °F 48% 30.56 in 10.0 mi North 13.8 mph 27.6 mph N/A   Clear